Location: Carrières
(48.9495°N, 2.0407°E)
Time: 00:38:25
(UTC+00:00)

A-11 Canister half - All Passes

Search period start: 17 April 2024 00:00
Search period end: 27 April 2024 00:00
Orbit: 1513 x 1686 km, 47.2° (Epoch: 16 April)

Date Brightness Start Highest point End Pass type
(mag) Time Alt. Az. Time Alt. Az. Time Alt. Az.
17 Apr - 10:23:09 10° SSW 10:30:48 30° SE 10:38:38 10° E daylight
17 Apr - 12:25:16 10° WSW 12:34:28 65° SSE 12:44:01 10° E daylight
17 Apr - 14:29:40 10° W 14:39:11 82° S 14:49:04 10° E daylight
17 Apr - 16:34:26 10° WNW 16:43:52 61° SSW 16:53:36 10° SE daylight
17 Apr - 18:39:50 10° W 18:47:31 27° SW 18:55:21 10° S daylight
18 Apr - 10:00:29 10° S 10:07:56 28° SE 10:15:32 10° E daylight
18 Apr - 12:02:22 10° SW 12:11:31 63° SSE 12:21:01 10° ENE daylight
18 Apr - 14:06:42 10° W 14:16:11 82° S 14:26:03 10° E daylight
18 Apr - 16:11:28 10° WNW 16:20:54 63° SSW 16:30:40 10° SE daylight
18 Apr - 18:16:46 10° W 18:24:37 28° SW 18:32:38 10° S daylight
19 Apr - 09:37:49 10° S 09:45:04 27° SE 09:52:27 10° E daylight
19 Apr - 11:39:28 10° SW 11:48:34 62° SSE 11:58:00 10° ENE daylight
19 Apr - 13:43:45 10° W 13:53:12 82° S 14:03:02 10° E daylight
19 Apr - 15:48:30 10° W 15:57:56 64° SSW 16:07:42 10° SE daylight
19 Apr - 17:53:43 10° W 18:01:42 30° SW 18:09:55 10° SSE daylight
20 Apr - 09:15:11 10° S 09:22:12 25° SE 09:29:20 10° E daylight
20 Apr - 11:16:35 10° SW 11:25:38 60° SSE 11:34:58 10° ENE daylight
20 Apr - 13:20:47 10° W 13:30:13 82° S 13:40:01 10° E daylight
20 Apr - 15:25:32 10° W 15:34:58 66° SSW 15:44:44 10° ESE daylight
20 Apr - 17:30:40 10° W 17:38:48 32° SW 17:47:10 10° SSE daylight
21 Apr - 08:52:35 10° S 08:59:21 23° SE 09:06:12 10° E daylight
21 Apr - 10:53:43 10° SW 11:02:42 57° SSE 11:11:58 10° ENE daylight
21 Apr - 12:57:50 10° W 13:07:13 82° S 13:16:59 10° E daylight
21 Apr - 15:02:34 10° W 15:11:59 68° SSW 15:21:45 10° ESE daylight
21 Apr - 17:07:38 10° W 17:15:53 33° SW 17:24:23 10° SSE daylight
22 Apr - 08:30:01 10° S 08:36:29 22° SE 08:43:03 10° E daylight
22 Apr - 10:30:50 10° SW 10:39:46 55° SSE 10:48:57 10° ENE daylight
22 Apr - 12:34:52 10° W 12:44:14 81° S 12:53:57 10° E daylight
22 Apr - 14:39:37 10° W 14:49:01 69° SSW 14:58:46 10° ESE daylight
22 Apr - 16:44:37 10° WNW 16:52:59 35° SW 17:01:36 10° SSE daylight
23 Apr - 08:07:27 10° S 08:13:38 20° SE 08:19:53 10° E daylight
23 Apr - 10:07:58 10° SW 10:16:50 53° SSE 10:25:57 10° ENE daylight
23 Apr - 12:11:55 10° WSW 12:21:15 81° S 12:30:57 10° E daylight
23 Apr - 14:16:39 10° W 14:26:03 71° SSW 14:35:47 10° ESE daylight
23 Apr - 16:21:36 10° WNW 16:30:04 37° SW 16:38:48 10° SSE daylight
24 Apr - 07:44:57 10° SSE 07:50:48 19° SE 07:56:41 10° E daylight
24 Apr - 09:45:07 10° SW 09:53:55 51° SSE 10:02:56 10° ENE daylight
24 Apr - 11:48:57 10° WSW 11:58:17 80° S 12:07:55 10° E daylight
24 Apr - 13:53:41 10° W 14:03:04 72° SSW 14:12:48 10° ESE daylight
24 Apr - 15:58:35 10° WNW 16:07:08 39° SW 16:15:58 10° SSE daylight
24 Apr - 18:07:39 10° WSW 18:09:56 11° WSW 18:12:13 10° SW daylight
25 Apr - 07:22:29 10° SSE 07:27:57 17° SE 07:33:27 10° E daylight
25 Apr - 09:22:16 10° SW 09:31:00 49° SSE 09:39:55 10° ENE daylight
25 Apr - 11:26:01 10° WSW 11:35:18 79° S 11:44:54 10° E daylight
25 Apr - 13:30:43 10° W 13:40:06 74° SSW 13:49:48 10° ESE daylight
25 Apr - 15:35:36 10° WNW 15:44:13 40° SW 15:53:08 10° SSE daylight
25 Apr - 17:43:46 10° WSW 17:47:05 12° WSW 17:50:26 10° SW daylight
26 Apr - 07:00:05 10° SSE 07:05:07 16° SE 07:10:10 10° E daylight
26 Apr - 08:59:26 10° SW 09:08:05 47° SSE 09:16:54 10° ENE daylight
26 Apr - 11:03:03 10° WSW 11:12:20 78° S 11:21:54 10° E daylight
26 Apr - 13:07:46 10° W 13:17:07 75° SSW 13:26:48 10° ESE daylight
26 Apr - 15:12:36 10° WNW 15:21:18 42° SW 15:30:17 10° SSE daylight
26 Apr - 17:20:11 10° W 17:24:14 13° SW 17:28:20 10° SSW daylight
